Location: Colorado Springs
(38.8340°N, 104.8210°W)
Time: 03:38:38
(UTC-06:00)

Tiangong 2 - Pass Details

Date: 12 October 2017
Orbit: 388 x 391 km, 42.8° (Epoch: 23 October)

Event Time Altitude Azimuth Distance (km) Brightness Sun altitude
Exits shadow 06:20:48 13° 288° (WNW) 1,236 3.0 -9.6°
Maximum altitude 06:23:21 39° 356° (N) 601 2.0 -9.1°
Drops below altitude 10° 06:26:24 10° 67° (ENE) 1,423 5.1 -8.5°
Sets 06:28:34 0° 76° (ENE) 2,279 6.7 -8.1°
